TimeCST,TemperatureF,Dew PointF,Humidity,Sea Level PressureIn,VisibilityMPH,Wind Direction,Wind SpeedMPH,Gust SpeedMPH,PrecipitationIn,Events,Conditions,WindDirDegrees,DateUTC
12:15 AM,32.0,19.4,60,30.17,10.0,North,-9999.0,-,N/A,,Clear,0,2013-01-23 06:15:00
12:35 AM,28.4,19.4,69,30.17,10.0,North,-9999.0,-,N/A,,Clear,0,2013-01-23 06:35:00
12:55 AM,28.4,19.4,69,30.17,10.0,North,-9999.0,-,N/A,,Clear,0,2013-01-23 06:55:00
1:15 AM,28.4,19.4,69,30.17,10.0,North,-9999.0,-,N/A,,Clear,0,2013-01-23 07:15:00
1:35 AM,28.4,19.4,69,30.17,10.0,North,-9999.0,-,N/A,,Clear,0,2013-01-23 07:35:00
1:55 AM,26.6,19.4,74,30.17,10.0,North,-9999.0,-,N/A,,Clear,0,2013-01-23 07:55:00
2:15 AM,28.4,21.2,74,30.17,10.0,North,-9999.0,-,N/A,,Clear,0,2013-01-23 08:15:00
2:35 AM,32.0,19.4,60,30.17,10.0,North,-9999.0,-,N/A,,Clear,0,2013-01-23 08:35:00
2:55 AM,30.2,19.4,64,30.18,10.0,North,-9999.0,-,N/A,,Clear,0,2013-01-23 08:55:00
3:15 AM,26.6,17.6,69,30.18,10.0,North,-9999.0,-,N/A,,Clear,0,2013-01-23 09:15:00
3:35 AM,26.6,17.6,69,30.17,10.0,North,-9999.0,-,N/A,,Clear,0,2013-01-23 09:35:00
3:55 AM,26.6,17.6,69,30.18,10.0,North,-9999.0,-,N/A,,Clear,0,2013-01-23 09:55:00
4:15 AM,26.6,17.6,69,30.17,10.0,North,-9999.0,-,N/A,,Clear,0,2013-01-23 10:15:00
4:35 AM,26.6,17.6,69,30.17,10.0,North,-9999.0,-,N/A,,Clear,0,2013-01-23 10:35:00
4:55 AM,28.4,19.4,69,30.16,10.0,North,-9999.0,-,N/A,,Clear,0,2013-01-23 10:55:00
5:15 AM,24.8,17.6,74,30.17,10.0,North,-9999.0,-,N/A,,Clear,0,2013-01-23 11:15:00
5:35 AM,26.6,17.6,69,30.17,10.0,North,-9999.0,-,N/A,,Clear,0,2013-01-23 11:35:00
5:55 AM,26.6,19.4,74,30.17,10.0,North,-9999.0,-,N/A,,Clear,0,2013-01-23 11:55:00
6:15 AM,24.8,17.6,74,30.17,10.0,North,-9999.0,-,N/A,,Clear,0,2013-01-23 12:15:00
6:35 AM,28.4,19.4,69,30.18,10.0,North,-9999.0,-,N/A,,Clear,0,2013-01-23 12:35:00
6:55 AM,26.6,19.4,74,30.18,10.0,North,-9999.0,-,N/A,,Clear,0,2013-01-23 12:55:00
7:15 AM,24.8,19.4,80,30.18,10.0,North,-9999.0,-,N/A,,Clear,0,2013-01-23 13:15:00
7:35 AM,26.6,19.4,74,30.19,10.0,North,-9999.0,-,N/A,,Clear,0,2013-01-23 13:35:00
7:55 AM,26.6,19.4,74,30.20,10.0,North,-9999.0,-,N/A,,Clear,0,2013-01-23 13:55:00
8:15 AM,28.4,19.4,69,30.21,10.0,North,-9999.0,-,N/A,,Clear,0,2013-01-23 14:15:00
8:35 AM,28.4,21.2,74,30.21,10.0,North,-9999.0,-,N/A,,Clear,0,2013-01-23 14:35:00
8:55 AM,32.0,23.0,69,30.21,10.0,North,-9999.0,-,N/A,,Clear,0,2013-01-23 14:55:00
9:15 AM,33.8,23.0,65,30.22,10.0,North,-9999.0,-,N/A,,Clear,0,2013-01-23 15:15:00
9:35 AM,37.4,26.6,65,30.23,10.0,North,-9999.0,-,N/A,,Clear,0,2013-01-23 15:35:00
9:55 AM,42.8,26.6,53,30.23,10.0,North,-9999.0,-,N/A,,Clear,0,2013-01-23 15:55:00
10:15 AM,46.4,26.6,46,30.23,10.0,North,-9999.0,-,N/A,,Clear,0,2013-01-23 16:15:00
10:35 AM,50.0,26.6,40,30.24,10.0,North,-9999.0,-,N/A,,Clear,0,2013-01-23 16:35:00
10:55 AM,53.6,26.6,35,30.24,10.0,North,-9999.0,-,N/A,,Clear,0,2013-01-23 16:55:00
11:15 AM,55.4,26.6,33,30.24,10.0,North,-9999.0,-,N/A,,Clear,0,2013-01-23 17:15:00
11:35 AM,57.2,24.8,29,30.24,10.0,North,-9999.0,-,N/A,,Clear,0,2013-01-23 17:35:00
11:55 AM,59.0,23.0,25,30.23,10.0,North,-9999.0,-,N/A,,Clear,0,2013-01-23 17:55:00
12:15 PM,60.8,19.4,20,30.22,10.0,North,-9999.0,-,N/A,,Clear,0,2013-01-23 18:15:00
12:35 PM,62.6,21.2,20,30.20,10.0,North,-9999.0,-,N/A,,Clear,0,2013-01-23 18:35:00
12:55 PM,64.4,19.4,18,30.19,10.0,North,-9999.0,-,N/A,,Clear,0,2013-01-23 18:55:00
1:15 PM,66.2,17.6,15,30.18,10.0,North,-9999.0,-,N/A,,Clear,0,2013-01-23 19:15:00
1:35 PM,68.0,17.6,15,30.17,10.0,North,-9999.0,-,N/A,,Clear,0,2013-01-23 19:35:00
1:55 PM,68.0,17.6,15,30.16,10.0,North,-9999.0,-,N/A,,Clear,0,2013-01-23 19:55:00
2:15 PM,68.0,15.8,13,30.15,10.0,North,-9999.0,-,N/A,,Clear,0,2013-01-23 20:15:00
2:35 PM,69.8,14.0,12,30.15,10.0,North,-9999.0,-,N/A,,Clear,0,2013-01-23 20:35:00
2:55 PM,69.8,14.0,12,30.14,10.0,North,-9999.0,-,N/A,,Clear,0,2013-01-23 20:55:00
3:15 PM,71.6,14.0,11,30.14,10.0,North,-9999.0,-,N/A,,Clear,0,2013-01-23 21:15:00
3:35 PM,71.6,10.4,9,30.13,10.0,North,-9999.0,-,N/A,,Clear,0,2013-01-23 21:35:00
3:55 PM,71.6,10.4,9,30.13,10.0,North,-9999.0,-,N/A,,Clear,0,2013-01-23 21:55:00
4:15 PM,71.6,10.4,9,30.13,10.0,North,-9999.0,-,N/A,,Clear,0,2013-01-23 22:15:00
4:35 PM,71.6,10.4,9,30.13,10.0,North,-9999.0,-,N/A,,Clear,0,2013-01-23 22:35:00
4:55 PM,71.6,12.2,10,30.13,10.0,North,-9999.0,-,N/A,,Clear,0,2013-01-23 22:55:00
5:15 PM,69.8,14.0,12,30.13,10.0,North,-9999.0,-,N/A,,Clear,0,2013-01-23 23:15:00
5:35 PM,68.0,14.0,12,30.14,10.0,North,-9999.0,-,N/A,,Clear,0,2013-01-23 23:35:00
5:55 PM,64.4,14.0,14,30.14,10.0,North,-9999.0,-,N/A,,Clear,0,2013-01-23 23:55:00
6:15 PM,62.6,14.0,15,30.14,10.0,North,-9999.0,-,N/A,,Clear,0,2013-01-24 00:15:00
6:35 PM,57.2,15.8,20,30.15,10.0,North,-9999.0,-,N/A,,Clear,0,2013-01-24 00:35:00
6:55 PM,55.4,17.6,23,30.15,10.0,North,-9999.0,-,N/A,,Clear,0,2013-01-24 00:55:00
7:15 PM,53.6,17.6,24,30.15,10.0,North,-9999.0,-,N/A,,Clear,0,2013-01-24 01:15:00
7:35 PM,50.0,19.4,30,30.15,10.0,North,-9999.0,-,N/A,,Clear,0,2013-01-24 01:35:00
7:55 PM,44.6,19.4,37,30.15,10.0,North,-9999.0,-,N/A,,Clear,0,2013-01-24 01:55:00
8:15 PM,46.4,19.4,34,30.14,10.0,North,-9999.0,-,N/A,,Clear,0,2013-01-24 02:15:00
8:35 PM,41.0,19.4,42,30.14,10.0,North,-9999.0,-,N/A,,Clear,0,2013-01-24 02:35:00
8:55 PM,41.0,19.4,42,30.14,10.0,North,-9999.0,-,N/A,,Clear,0,2013-01-24 02:55:00
9:15 PM,35.6,17.6,48,30.14,10.0,North,-9999.0,-,N/A,,Clear,0,2013-01-24 03:15:00
9:35 PM,32.0,17.6,55,30.15,10.0,North,-9999.0,-,N/A,,Clear,0,2013-01-24 03:35:00
9:55 PM,33.8,17.6,52,30.15,10.0,North,-9999.0,-,N/A,,Clear,0,2013-01-24 03:55:00
10:15 PM,33.8,17.6,52,30.15,10.0,North,-9999.0,-,N/A,,Clear,0,2013-01-24 04:15:00
10:35 PM,33.8,17.6,52,30.15,10.0,North,-9999.0,-,N/A,,Clear,0,2013-01-24 04:35:00
10:55 PM,33.8,17.6,52,30.15,10.0,North,-9999.0,-,N/A,,Clear,0,2013-01-24 04:55:00
11:15 PM,35.6,17.6,48,30.15,10.0,North,-9999.0,-,N/A,,Clear,0,2013-01-24 05:15:00
11:35 PM,35.6,17.6,48,30.14,10.0,North,-9999.0,-,N/A,,Clear,0,2013-01-24 05:35:00
11:55 PM,32.0,17.6,55,30.14,10.0,North,-9999.0,-,N/A,,Clear,0,2013-01-24 05:55:00